EW0259 Weather Reports


time (UTC)temp
F
wind
direction
speed
knots
gust
knots
rain 1hr
in
rain 24hr
in
rain mn
in
humidity
%
barometer
mb
20260507072809 52 290 0.0 0.0 0.00 0.00 0.00 89 1021.9
20260507072738 52 290 0.0 0.0 0.00 0.00 0.00 89 1021.9
20260507072307 52 290 0.0 0.0 0.00 0.00 0.00 89 1022.0
20260507071722 52 290 0.0 0.0 0.00 0.00 0.00 89 1021.9
20260507071230 52 355 0.0 0.0 0.00 0.00 0.00 89 1021.9
20260507070757 52 355 0.0 0.0 0.00 0.00 0.00 89 1021.9
20260507070234 52 230 0.0 1.7 0.00 0.00 0.00 89 1022.0
20260507065811 52 247 0.0 2.6 0.00 0.00 0.00 89 1022.0
20260507065739 52 247 0.0 2.6 0.00 0.00 0.00 89 1022.0
20260507065227 52 266 0.9 2.6 0.00 0.00 0.00 88 1022.0
20260507064735 52 271 0.0 2.6 0.00 0.00 0.00 88 1022.0
20260507064223 52 256 0.9 2.6 0.00 0.00 0.00 88 1021.9
20260507063735 52 223 0.0 0.0 0.00 0.00 0.00 88 1022.0
20260507063223 52 297 0.0 1.7 0.00 0.00 0.00 88 1022.0
20260507062810 52 296 0.0 1.7 0.00 0.00 0.00 87 1022.0
20260507062738 52 296 0.0 1.7 0.00 0.00 0.00 87 1022.0
20260507062226 52 294 0.0 1.7 0.00 0.00 0.00 87 1022.0
20260507061754 52 290 0.9 2.6 0.00 0.00 0.00 87 1022.1
20260507061310 52 290 0.9 2.6 0.00 0.00 0.00 87 1022.0
20260507060726 53 300 0.0 1.7 0.00 0.00 0.00 86 1022.1
20260507060254 53 342 0.0 2.6 0.00 0.00 0.00 86 1022.1
20260507055729 53 229 0.9 2.6 0.00 0.00 0.00 86 1022.2
20260507055237 53 247 0.0 4.3 0.00 0.00 0.00 86 1022.2
20260507054725 53 351 1.7 4.3 0.00 0.00 0.00 86 1022.1
20260507054253 53 5 0.0 1.7 0.00 0.00 0.00 86 1022.2
20260507053810 53 48 0.0 1.7 0.00 0.00 0.00 86 1022.1
20260507053738 53 48 0.0 1.7 0.00 0.00 0.00 86 1022.1
20260507053306 53 17 0.9 3.5 0.00 0.00 0.00 85 1022.1
20260507052721 53 305 0.9 3.5 0.00 0.00 0.00 85 1022.1
20260507052229 53 273 0.9 2.6 0.00 0.00 0.00 84 1022.2
20260507051737 53 317 0.9 2.6 0.00 0.00 0.00 83 1022.1
20260507051305 54 360 0.9 2.6 0.00 0.00 0.00 83 1022.2
20260507051233 54 360 0.9 2.6 0.00 0.00 0.00 83 1022.2
20260507050724 54 299 0.0 2.6 0.00 0.00 0.00 82 1022.2
20260507050232 54 78 0.0 2.6 0.00 0.00 0.00 82 1022.1
20260507045739 54 114 0.9 2.6 0.00 0.00 0.00 82 1022.2
20260507045227 54 40 0.0 0.0 0.00 0.00 0.00 81 1022.2
20260507044755 54 42 0.0 0.0 0.00 0.00 0.00 81 1022.2
20260507044723 54 42 0.0 0.0 0.00 0.00 0.00 81 1022.2
20260507044231 54 42 0.0 0.0 0.00 0.00 0.00 81 1022.2
20260507043739 54 346 0.0 0.0 0.00 0.00 0.00 81 1022.1
20260507043307 54 47 0.0 0.9 0.00 0.00 0.00 81 1022.0
20260507042722 54 291 0.0 0.9 0.00 0.00 0.00 81 1022.1
20260507042229 54 288 0.0 0.0 0.00 0.00 0.00 81 1022.0
20260507041736 54 288 0.0 0.0 0.00 0.00 0.00 81 1022.0
20260507041224 54 294 0.0 0.0 0.00 0.00 0.00 81 1022.2
20260507040736 54 293 0.0 0.0 0.00 0.00 0.00 80 1022.2
20260507040224 54 294 0.0 1.7 0.00 0.00 0.00 81 1022.1
20260507035731 54 293 0.0 1.7 0.00 0.00 0.00 80 1022.0
20260507035259 55 52 0.0 0.0 0.00 0.00 0.00 80 1022.1
20260507035227 55 52 0.0 0.0 0.00 0.00 0.00 80 1022.1
20260507034735 55 92 0.0 1.7 0.00 0.00 0.00 80 1022.0
20260507034223 55 84 0.0 2.6 0.00 0.00 0.00 80 1021.9
20260507033811 55 266 0.0 2.6 0.00 0.00 0.00 80 1021.9
20260507033228 55 266 0.0 1.7 0.00 0.00 0.00 80 1021.8
20260507032735 55 265 0.0 1.7 0.00 0.00 0.00 79 1021.8
20260507032305 55 298 0.0 2.6 0.00 0.00 0.00 79 1021.7
20260507031739 55 290 0.0 2.6 0.00 0.00 0.00 79 1021.6
20260507031227 55 81 0.0 1.7 0.00 0.00 0.00 78 1021.6
20260507030755 55 198 0.0 2.6 0.00 0.00 0.00 78 1021.6
20260507030311 55 271 0.0 2.6 0.00 0.00 0.00 78 1021.5
20260507025726 55 288 0.0 1.7 0.00 0.00 0.00 78 1021.6
20260507025238 56 65 0.0 4.3 0.00 0.00 0.00 78 1021.5
20260507024726 56 331 0.0 3.5 0.00 0.00 0.00 78 1021.7
20260507024233 56 274 0.9 3.5 0.00 0.00 0.00 77 1021.7
20260507023721 56 315 0.9 1.7 0.00 0.00 0.00 77 1021.5
20260507023229 56 313 0.9 1.7 0.00 0.00 0.00 77 1021.4
20260507022735 56 109 0.0 1.7 0.00 0.00 0.00 77 1021.4
20260507022222 56 311 0.0 1.7 0.00 0.00 0.00 77 1021.4
20260507021810 56 319 0.0 1.7 0.00 0.00 0.00 77 1021.4
20260507021226 56 298 0.0 2.6 0.00 0.00 0.00 76 1021.3
20260507020734 56 143 0.9 2.6 0.00 0.00 0.00 77 1021.4
20260507020301 56 242 0.9 2.6 0.00 0.00 0.00 76 1021.5
20260507015721 56 313 0.0 1.7 0.00 0.00 0.00 76 1021.5
20260507015228 56 251 0.0 1.7 0.00 0.00 0.00 77 1021.4
20260507014735 56 304 0.0 1.7 0.00 0.00 0.00 77 1021.4
20260507014303 56 252 0.9 2.6 0.00 0.00 0.00 77 1021.4
20260507013740 56 295 0.9 2.6 0.00 0.00 0.00 77 1021.3
20260507013308 56 355 0.9 2.6 0.00 0.00 0.00 77 1021.4
20260507013236 56 355 0.9 2.6 0.00 0.00 0.00 77 1021.4
20260507012723 56 61 0.9 2.6 0.00 0.00 0.00 77 1021.4
20260507012231 56 68 0.0 1.7 0.00 0.00 0.00 78 1021.4
20260507011739 56 68 0.9 1.7 0.00 0.00 0.00 77 1021.4
20260507011227 56 261 0.0 4.3 0.00 0.00 0.00 77 1021.4
20260507010735 56 273 1.7 6.1 0.00 0.00 0.00 77 1021.4
20260507010303 56 292 2.6 7.0 0.00 0.00 0.00 76 1021.4
20260507005738 57 262 2.6 7.0 0.00 0.00 0.00 75 1021.5
20260507005230 57 259 1.7 3.5 0.00 0.00 0.00 76 1021.6
20260507004738 57 77 0.0 2.6 0.00 0.00 0.00 76 1021.6
20260507004305 57 293 0.9 3.5 0.00 0.00 0.00 76 1021.6
20260507003802 57 287 0.9 3.5 0.00 0.00 0.00 76 1021.6
20260507003239 57 125 0.9 5.2 0.00 0.00 0.00 76 1021.6
20260507002726 57 242 1.7 5.2 0.00 0.00 0.00 75 1021.6
20260507002234 56 203 0.9 4.3 0.00 0.00 0.00 75 1021.6
20260507001802 57 196 0.9 6.1 0.00 0.00 0.00 75 1021.6
20260507001730 57 196 0.9 6.1 0.00 0.00 0.00 75 1021.6
20260507001258 57 282 2.6 6.1 0.00 0.00 0.00 75 1021.7
20260507000734 57 19 0.9 2.6 0.00 0.00 0.00 75 1021.7
20260507000222 57 346 0.0 4.3 0.00 0.00 0.00 75 1021.6
20260506235729 57 307 1.7 4.3 0.00 0.00 0.00 74 1021.6
20260506235237 57 108 0.9 3.5 0.00 0.00 0.00 74 1021.6
20260506234725 57 261 0.0 3.5 0.00 0.00 0.00 76 1021.6
20260506234237 57 109 0.9 3.5 0.00 0.00 0.00 76 1021.6
20260506233724 56 318 0.9 4.3 0.00 0.00 0.00 75 1021.5
20260506233232 56 208 0.9 5.2 0.00 0.00 0.00 75 1021.7
20260506232739 56 285 0.0 5.2 0.00 0.00 0.00 76 1021.7
20260506232226 56 82 0.9 3.5 0.00 0.00 0.00 76 1021.7
20260506231754 56 251 0.9 2.6 0.00 0.00 0.00 76 1021.7
20260506231230 56 136 0.9 3.5 0.00 0.00 0.00 76 1021.7
20260506230758 56 311 1.7 3.5 0.00 0.00 0.00 76 1021.7
20260506230726 56 311 1.7 3.5 0.00 0.00 0.00 76 1021.7
20260506230233 56 69 0.0 2.6 0.00 0.00 0.00 76 1021.7
20260506225740 56 116 0.0 1.7 0.00 0.00 0.00 76 1021.7
20260506225228 56 126 0.0 2.6 0.00 0.00 0.00 76 1021.7
20260506224756 56 221 0.9 2.6 0.00 0.00 0.00 76 1021.8
20260506224233 56 129 1.7 2.6 0.00 0.00 0.00 76 1021.8
20260506223725 56 238 0.0 2.6 0.00 0.00 0.00 76 1021.9
20260506223233 56 147 0.0 1.7 0.00 0.00 0.00 77 1021.9
20260506222800 56 94 0.9 2.6 0.00 0.00 0.00 77 1021.9
20260506222236 56 303 0.0 6.1 0.00 0.00 0.00 78 1022.0
20260506221804 56 25 0.9 6.1 0.00 0.00 0.00 77 1022.0
20260506221240 56 286 1.7 2.6 0.00 0.00 0.00 77 1022.0
20260506220808 55 318 0.9 4.3 0.00 0.00 0.00 78 1022.0
20260506220324 55 163 1.7 4.3 0.00 0.00 0.00 77 1022.0
20260506215726 55 278 0.9 5.2 0.00 0.00 0.00 78 1022.0
20260506215254 55 276 1.7 5.2 0.00 0.00 0.00 77 1022.0
20260506214731 55 336 0.9 5.2 0.00 0.00 0.00 76 1022.0
20260506214259 56 294 0.9 3.5 0.00 0.00 0.00 77 1021.9
20260506213736 56 279 0.9 3.5 0.00 0.00 0.00 77 1021.9
20260506213304 56 9 0.0 2.6 0.00 0.00 0.00 78 1022.0
20260506213232 56 9 0.0 2.6 0.00 0.00 0.00 78 1022.0
20260506212738 56 83 0.0 1.7 0.00 0.00 0.00 78 1022.0
20260506212307 55 340 0.9 1.7 0.00 0.00 0.00 79 1022.0
20260506211722 55 279 0.9 3.5 0.00 0.00 0.00 78 1022.0
20260506211230 55 266 1.7 4.3 0.00 0.00 0.00 78 1022.0
20260506210722 55 267 1.7 4.3 0.00 0.00 0.00 79 1022.0
20260506210230 55 251 0.0 1.7 0.00 0.00 0.00 79 1021.9
20260506205737 55 110 0.9 1.7 0.00 0.00 0.00 79 1022.0
20260506205306 55 46 0.0 1.7 0.00 0.00 0.00 80 1021.9
20260506204721 55 148 0.9 1.7 0.00 0.00 0.00 79 1021.9
20260506204309 55 273 0.9 2.6 0.00 0.00 0.00 80 1021.9
20260506203725 55 287 0.9 2.6 0.00 0.00 0.00 81 1022.0
20260506203233 55 15 0.0 1.7 0.00 0.00 0.00 82 1021.9
20260506202753 55 317 0.9 1.7 0.00 0.00 0.00 82 1021.8
20260506202309 55 5 0.0 1.7 0.00 0.00 0.00 83 1021.8
20260506201725 54 20 0.0 1.7 0.00 0.00 0.00 82 1021.7
20260506201233 54 246 0.0 1.7 0.00 0.00 0.00 81 1021.8
20260506200801 54 166 0.0 0.0 0.00 0.00 0.00 84 1021.7
20260506200729 54 166 0.0 0.0 0.00 0.00 0.00 84 1021.7
20260506200257 54 92 0.0 0.0 0.00 0.00 0.00 84 1021.8
20260506200225 54 92 0.0 0.0 0.00 0.00 0.00 84 1021.8
20260506195732 54 355 0.0 1.7 0.00 0.00 0.00 84 1021.8
20260506195259 54 355 0.0 2.6 0.00 0.00 0.00 83 1021.8
20260506195228 54 355 0.0 2.6 0.00 0.00 0.00 83 1021.8
20260506194755 54 279 1.7 2.6 0.00 0.00 0.00 83 1021.8
20260506194232 54 290 0.9 1.7 0.00 0.00 0.00 84 1021.7
20260506193740 54 270 0.0 1.7 0.00 0.00 0.00 85 1021.7
20260506193228 54 261 0.9 1.7 0.00 0.00 0.00 85 1021.6
20260506192739 53 279 0.9 5.2 0.00 0.00 0.00 85 1021.6
20260506192307 53 279 2.6 5.2 0.00 0.00 0.00 84 1021.6
20260506191724 54 296 0.0 3.5 0.00 0.00 0.00 85 1021.6
20260506191232 54 284 0.9 3.5 0.00 0.00 0.00 86 1021.6
20260506190740 54 296 1.7 3.5 0.00 0.00 0.00 85 1021.6
20260506190228 54 274 1.7 5.2 0.00 0.00 0.00 86 1021.6
20260506185755 54 345 0.9 2.6 0.00 0.00 0.00 86 1021.5
20260506185232 54 57 0.9 2.6 0.00 0.00 0.00 87 1021.6
20260506184800 54 230 0.0 5.2 0.00 0.00 0.00 87 1021.6
20260506184236 54 230 1.7 5.2 0.00 0.00 0.00 86 1021.5
20260506183724 54 316 0.0 1.7 0.00 0.00 0.00 87 1021.5
20260506183232 54 345 0.9 1.7 0.00 0.00 0.00 87 1021.5
20260506182723 54 342 0.9 2.6 0.00 0.00 0.00 87 1021.4
20260506182231 54 288 0.9 2.6 0.00 0.00 0.00 88 1021.2
20260506181739 54 292 0.9 2.6 0.00 0.00 0.00 88 1021.2
20260506181227 54 355 0.0 1.7 0.00 0.00 0.00 88 1021.2
20260506180755 54 331 0.0 0.0 0.00 0.00 0.00 89 1021.1
20260506180723 54 331 0.0 0.0 0.00 0.00 0.00 89 1021.1
20260506180231 54 292 0.0 0.0 0.00 0.00 0.00 89 1021.2
20260506175757 54 148 0.0 1.7 0.00 0.00 0.00 90 1021.2
20260506175234 54 290 0.0 1.7 0.00 0.00 0.00 89 1021.1
20260506174721 54 285 0.0 1.7 0.00 0.00 0.00 90 1021.1
20260506174309 54 274 0.9 1.7 0.00 0.00 0.00 90 1021.4
20260506173726 54 42 0.0 0.0 0.00 0.00 0.00 90 1021.3
20260506173234 54 283 0.0 0.0 0.00 0.00 0.00 90 1021.4
20260506172801 53 284 0.0 1.7 0.00 0.00 0.00 90 1021.3
20260506172258 53 228 0.9 1.7 0.00 0.00 0.00 90 1021.4
20260506171755 53 273 0.9 1.7 0.00 0.00 0.00 91 1021.4
20260506171723 53 273 0.9 1.7 0.00 0.00 0.00 91 1021.4
20260506171311 53 298 0.9 2.6 0.00 0.00 0.00 91 1021.3
20260506170728 53 283 0.0 2.6 0.00 0.00 0.00 90 1021.3
20260506170256 53 248 0.9 2.6 0.00 0.00 0.00 90 1021.2
20260506170224 53 248 0.9 2.6 0.00 0.00 0.00 90 1021.2
20260506165730 53 254 0.9 1.7 0.00 0.00 0.00 90 1021.2
20260506165222 53 146 0.0 1.7 0.00 0.00 0.00 91 1021.3
20260506164810 53 355 0.0 1.7 0.00 0.00 0.00 92 1021.2
20260506164306 53 198 0.0 1.7 0.00 0.00 0.00 92 1020.9
20260506163723 53 125 0.0 1.7 0.00 0.00 0.00 93 1020.8
20260506163231 53 97 0.9 1.7 0.00 0.00 0.00 93 1020.6
20260506162738 53 119 0.0 1.7 0.00 0.00 0.00 93 1020.7
20260506162226 53 101 0.0 1.7 0.00 0.00 0.00 93 1020.6
20260506161734 53 97 0.0 1.7 0.00 0.00 0.00 94 1020.6
20260506161221 52 82 0.0 0.9 0.00 0.00 0.00 93 1020.6
20260506160729 52 85 0.0 1.7 0.00 0.00 0.00 93 1020.7
20260506160256 52 107 0.9 1.7 0.00 0.00 0.00 92 1020.8
20260506155812 52 314 0.0 1.7 0.00 0.00 0.00 92 1020.9
20260506155228 52 251 0.0 1.7 0.00 0.00 0.00 92 1020.9
20260506154736 52 258 0.0 0.0 0.00 0.00 0.00 92 1020.9
20260506154227 52 244 0.0 0.0 0.00 0.00 0.00 93 1021.0
20260506153735 52 240 0.0 0.0 0.00 0.00 0.00 93 1020.9
20260506153223 52 240 0.0 0.9 0.00 0.00 0.00 92 1020.7
20260506152810 52 240 0.0 1.7 0.00 0.00 0.00 92 1020.8
20260506152306 52 105 0.0 1.7 0.00 0.00 0.00 92 1020.6
20260506151722 52 113 0.9 1.7 0.00 0.00 0.00 92 1020.5
20260506151230 52 225 0.0 1.7 0.00 0.00 0.00 92 1020.6
20260506150738 53 286 0.0 1.7 0.00 0.00 0.00 91 1020.7
20260506150226 53 216 0.0 1.7 0.00 0.00 0.00 91 1020.7
20260506145733 53 210 0.0 1.7 0.00 0.00 0.00 91 1020.8
20260506145301 53 283 0.9 1.7 0.00 0.00 0.00 91 1020.8
20260506144737 53 204 0.0 2.6 0.00 0.00 0.00 91 1020.9
20260506144228 53 58 0.0 2.6 0.00 0.00 0.00 92 1020.7
20260506143756 53 121 0.0 1.7 0.00 0.00 0.00 92 1020.6
20260506143232 53 118 0.0 1.7 0.00 0.00 0.00 92 1020.5
20260506142739 53 89 0.9 2.6 0.00 0.00 0.00 92 1020.3
20260506142226 53 118 0.9 2.6 0.00 0.00 0.00 92 1020.3
20260506141753 53 121 0.0 1.7 0.00 0.00 0.00 92 1020.4
20260506141722 53 121 0.0 1.7 0.00 0.00 0.00 92 1020.4
20260506141230 53 121 0.0 1.7 0.00 0.00 0.00 92 1020.4
20260506140758 53 161 0.0 1.7 0.00 0.00 0.00 92 1020.6
20260506140234 53 109 0.0 1.7 0.00 0.00 0.00 92 1020.7
20260506135740 53 94 0.9 1.7 0.00 0.00 0.00 92 1020.4
20260506135228 53 66 0.0 1.7 0.00 0.00 0.00 92 1020.4
20260506134736 53 138 0.0 1.7 0.00 0.00 0.00 92 1020.5
20260506134224 53 144 0.9 1.7 0.00 0.00 0.00 92 1020.5
20260506133736 53 92 0.0 1.7 0.00 0.00 0.00 92 1020.3
20260506133224 53 273 0.0 1.7 0.00 0.00 0.00 92 1020.2
20260506132731 53 252 0.0 1.7 0.00 0.00 0.00 91 1020.4
20260506132238 53 94 0.0 1.7 0.00 0.00 0.00 91 1020.3
20260506131806 53 94 0.0 1.7 0.00 0.00 0.00 91 1019.9
20260506131301 53 116 0.9 1.7 0.00 0.00 0.00 92 1020.0
20260506130738 53 94 0.0 1.7 0.00 0.00 0.00 91 1020.0
20260506130305 53 181 0.0 0.0 0.00 0.00 0.00 91 1020.1
20260506125801 53 191 0.0 0.0 0.00 0.00 0.00 91 1020.1
20260506125257 53 191 0.0 0.0 0.00 0.00 0.00 91 1019.9
20260506125225 53 191 0.0 0.0 0.00 0.00 0.00 91 1019.9
20260506124733 53 155 0.0 0.0 0.00 0.00 0.00 91 1019.9
20260506124301 53 155 0.0 0.0 0.00 0.00 0.00 91 1019.9
20260506123737 53 153 0.0 0.0 0.00 0.00 0.00 90 1019.9
20260506123225 53 159 0.0 0.0 0.00 0.00 0.00 90 1019.9
20260506122812 53 159 0.0 0.0 0.00 0.00 0.00 90 1019.7
20260506122228 53 159 0.0 0.0 0.00 0.00 0.00 90 1019.7
20260506121736 53 179 0.0 0.0 0.00 0.00 0.00 90 1019.7
20260506121228 53 179 0.0 0.0 0.00 0.00 0.00 90 1019.7
20260506120736 53 179 0.0 0.0 0.00 0.00 0.00 90 1019.7
20260506120223 53 179 0.0 0.0 0.00 0.00 0.00 89 1019.6
20260506115810 53 301 0.0 1.7 0.00 0.00 0.00 89 1019.5
20260506115738 53 301 0.0 1.7 0.00 0.00 0.00 89 1019.5
20260506115226 53 169 0.0 1.7 0.00 0.00 0.00 89 1019.5
20260506114734 53 71 0.0 1.7 0.00 0.00 0.00 88 1019.5
20260506114222 53 108 0.0 1.7 0.00 0.00 0.00 88 1019.6
20260506113810 53 141 0.0 1.7 0.00 0.00 0.00 87 1019.5
20260506113738 53 141 0.0 1.7 0.00 0.00 0.00 87 1019.5
20260506113306 53 140 0.0 1.7 0.00 0.00 0.00 87 1019.6
20260506113234 53 140 0.0 1.7 0.00 0.00 0.00 87 1019.6
20260506112721 53 140 0.0 0.0 0.00 0.00 0.00 86 1019.6
20260506112229 53 140 0.0 0.0 0.00 0.00 0.00 86 1019.6
20260506111737 53 140 0.0 0.0 0.00 0.00 0.00 86 1019.6
20260506111225 53 140 0.0 0.9 0.00 0.00 0.00 86 1019.6
20260506110737 53 157 0.0 0.0 0.00 0.00 0.00 86 1019.5
20260506110225 53 148 0.0 0.0 0.00 0.00 0.00 86 1019.4
20260506105732 53 177 0.0 0.0 0.00 0.00 0.00 86 1019.4
20260506105240 53 159 0.0 0.0 0.00 0.00 0.00 86 1019.4
20260506104728 53 159 0.0 0.0 0.00 0.00 0.00 86 1019.3
20260506104236 53 157 0.0 0.0 0.00 0.00 0.00 86 1019.3
20260506103724 53 156 0.0 0.0 0.00 0.00 0.00 86 1019.3
20260506103311 54 271 0.0 0.0 0.00 0.00 0.00 86 1019.3
20260506102736 54 275 0.0 0.0 0.00 0.00 0.00 85 1019.3
20260506102224 54 275 0.0 0.0 0.00 0.00 0.00 85 1019.2
20260506101732 54 275 0.0 1.7 0.00 0.00 0.00 85 1019.1
20260506101224 54 275 0.0 0.9 0.00 0.00 0.00 85 1019.1
20260506100732 54 123 0.0 1.7 0.00 0.00 0.00 85 1019.0
20260506100240 54 123 0.0 1.7 0.00 0.00 0.00 85 1018.9
20260506095727 54 322 0.0 1.7 0.00 0.00 0.00 85 1018.8
20260506095235 54 45 0.9 1.7 0.00 0.00 0.00 85 1018.8
20260506094803 54 290 0.0 2.6 0.00 0.00 0.00 84 1018.8
20260506094239 54 260 0.0 2.6 0.00 0.00 0.00 84 1018.8
20260506093727 54 114 0.9 2.6 0.00 0.00 0.00 85 1018.7
20260506093234 54 283 0.0 1.7 0.00 0.00 0.00 85 1018.7
20260506092721 54 283 0.9 1.7 0.00 0.00 0.00 85 1018.7
20260506092309 54 9 0.0 1.7 0.00 0.00 0.00 85 1018.7
20260506091730 54 312 0.0 1.7 0.00 0.00 0.00 86 1018.6
20260506091238 54 274 0.0 1.7 0.00 0.00 0.00 86 1018.6
20260506090806 54 230 0.0 0.9 0.00 0.00 0.00 86 1018.5
20260506090241 54 273 0.0 0.9 0.00 0.00 0.00 86 1018.5
20260506085728 54 194 0.0 0.9 0.00 0.00 0.00 86 1018.4
20260506085253 54 217 0.9 0.9 0.00 0.00 0.00 87 1018.5
20260506084810 54 130 0.0 0.0 0.00 0.00 0.00 87 1018.4
20260506084738 54 130 0.0 0.0 0.00 0.00 0.00 87 1018.4
20260506084226 54 130 0.0 0.0 0.00 0.00 0.00 87 1018.3
20260506083734 54 130 0.0 0.0 0.00 0.00 0.00 87 1018.3
20260506083222 54 130 0.0 0.0 0.00 0.00 0.00 87 1018.2
20260506082729 54 130 0.0 0.9 0.00 0.00 0.00 86 1018.3
20260506082237 54 130 0.0 1.7 0.00 0.00 0.00 87 1018.4
20260506081805 54 130 0.0 1.7 0.00 0.00 0.00 87 1018.4
20260506081301 54 304 0.0 1.7 0.00 0.00 0.00 87 1018.4
20260506080737 54 304 0.0 1.7 0.00 0.00 0.00 87 1018.4
20260506080229 54 260 0.0 1.7 0.00 0.00 0.00 88 1018.3
20260506073240 53 121 0.0 1.7 0.00 0.00 0.00 90 1018.1